When you browse on this site, cookies collect data to enhance your experience and personalize the content and advertising you see.
Visit our Privacy Policy to learn more. By continuing to use the site, you agree to this use of cookies and data.
  • In Denmark
  • List of Countries
  • For 7 days
  • Water Temperature
  • Satellite Maps
  • Weather Map
  • Weather Widgets
  • user-avatar
    Login

    Hourly Weather Dubki

    Today, 16 February, Saturday

    Time Temperature Precipitation Wind Pressure Humidity
    00:00 -3°C° 0 mm 6 mps 746 mmHg 89%
    01:00 -2°C° 0 mm 5 mps 746 mmHg 89%
    02:00 -2°C° 0 mm 5 mps 746 mmHg 90%
    03:00 -2°C° 0 mm 5 mps 745 mmHg 90%
    04:00 -2°C° 0 mm 5 mps 745 mmHg 90%
    05:00 -1°C° 0 mm 5 mps 745 mmHg 91%
    06:00 -1°C° 0 mm 5 mps 744 mmHg 91%
    07:00 -1°C° 0 mm 5 mps 745 mmHg 90%
    08:00 -1°C° 0 mm 4 mps 745 mmHg 90%
    09:00 -1°C° 0 mm 4 mps 745 mmHg 89%
    10:00 -1°C° 0 mm 4 mps 745 mmHg 92%
    11:00 -1°C° 0 mm 4 mps 745 mmHg 94%
    12:00 -1°C° 0 mm 4 mps 745 mmHg 97%
    13:00 -1°C° 0 mm 4 mps 745 mmHg 95%
    14:00 -1°C° 0 mm 4 mps 745 mmHg 94%
    15:00 -1°C° 0 mm 4 mps 745 mmHg 92%
    16:00 -1°C° 0 mm 4 mps 745 mmHg 91%
    17:00 -2°C° 0 mm 4 mps 745 mmHg 90%
    18:00 -2°C° 0 mm 4 mps 746 mmHg 90%
    19:00 -2°C° 0 mm 4 mps 746 mmHg 89%
    20:00 -3°C° 0 mm 4 mps 746 mmHg 89%
    21:00 -3°C° 0 mm 4 mps 746 mmHg 89%
    22:00 -4°C° 0 mm 4 mps 746 mmHg 90%
    23:00 -5°C° 0 mm 4 mps 746 mmHg 90%

    Tomorrow, 17 February, Sunday

    Time Temperature Precipitation Wind Pressure Humidity
    00:00 -7°C° 0 mm 4 mps 746 mmHg 91%
    01:00 -7°C° 0 mm 3 mps 746 mmHg 91%
    02:00 -8°C° 0 mm 3 mps 746 mmHg 91%
    03:00 -9°C° 0 mm 3 mps 746 mmHg 92%
    04:00 -9°C° 0 mm 3 mps 746 mmHg 92%
    05:00 -10°C° 0 mm 3 mps 746 mmHg 92%
    06:00 -9°C° 0 mm 2 mps 745 mmHg 92%
    07:00 -9°C° 0 mm 3 mps 745 mmHg 93%
    08:00 -8°C° 0 mm 3 mps 744 mmHg 93%
    09:00 -7°C° 0 mm 3 mps 744 mmHg 94%
    10:00 -7°C° 0 mm 4 mps 743 mmHg 92%
    11:00 -4°C° 0 mm 4 mps 742 mmHg 91%
    12:00 -2°C° 0 mm 5 mps 741 mmHg 90%
    13:00 -2°C° 0 mm 5 mps 740 mmHg 90%
    14:00 -2°C° 0 mm 5 mps 739 mmHg 90%
    15:00 -2°C° 0 mm 5 mps 738 mmHg 90%
    16:00 -2°C° 0 mm 5 mps 738 mmHg 89%
    17:00 -2°C° 0 mm 5 mps 737 mmHg 89%
    18:00 -2°C° 0 mm 5 mps 737 mmHg 88%
    19:00 -2°C° 0 mm 5 mps 736 mmHg 88%
    20:00 -2°C° 0 mm 5 mps 736 mmHg 88%
    21:00 -3°C° 0 mm 6 mps 736 mmHg 88%
    22:00 -3°C° 0.1 mm 6 mps 736 mmHg 86%
    23:00 -3°C° 0.1 mm 6 mps 735 mmHg 84%

    Day after tomorrow, 18 February, Monday

    Time Temperature Precipitation Wind Pressure Humidity
    00:00 -4°C° 0.1 mm 6 mps 735 mmHg 82%
    01:00 -4°C° 0 mm 6 mps 735 mmHg 83%
    02:00 -5°C° 0 mm 6 mps 735 mmHg 84%
    03:00 -5°C° 0 mm 6 mps 735 mmHg 85%
    04:00 -6°C° 0 mm 7 mps 735 mmHg 85%
    05:00 -6°C° 0 mm 7 mps 735 mmHg 84%
    06:00 -6°C° 0 mm 7 mps 735 mmHg 83%
    07:00 -6°C° 0 mm 7 mps 736 mmHg 83%
    08:00 -6°C° 0 mm 8 mps 736 mmHg 82%
    09:00 -6°C° 0 mm 8 mps 736 mmHg 81%
    10:00 -6°C° 0 mm 8 mps 736 mmHg 80%
    11:00 -6°C° 0 mm 9 mps 737 mmHg 80%
    12:00 -6°C° 0 mm 9 mps 737 mmHg 80%
    13:00 -6°C° 0 mm 9 mps 738 mmHg 79%
    14:00 -6°C° 0 mm 9 mps 738 mmHg 79%
    15:00 -6°C° 0 mm 9 mps 739 mmHg 78%
    16:00 -6°C° 0 mm 9 mps 740 mmHg 79%
    17:00 -7°C° 0 mm 8 mps 741 mmHg 79%
    18:00 -8°C° 0 mm 8 mps 742 mmHg 79%
    19:00 -8°C° 0 mm 8 mps 743 mmHg 79%
    20:00 -10°C° 0 mm 8 mps 744 mmHg 80%
    21:00 -10°C° 0 mm 8 mps 745 mmHg 80%
    22:00 -11°C° 0 mm 8 mps 746 mmHg 80%
    23:00 -11°C° 0 mm 8 mps 746 mmHg 80%

    19 February, Tuesday

    Time Temperature Precipitation Wind Pressure Humidity
    00:00 -12°C° 0 mm 8 mps 747 mmHg 80%
    01:00 -12°C° 0 mm 7 mps 748 mmHg 81%
    02:00 -13°C° 0 mm 7 mps 749 mmHg 81%
    03:00 -13°C° 0 mm 7 mps 750 mmHg 82%
    04:00 -14°C° 0 mm 7 mps 751 mmHg 83%
    05:00 -15°C° 0 mm 7 mps 752 mmHg 83%
    06:00 -15°C° 0 mm 6 mps 753 mmHg 84%
    07:00 -15°C° 0 mm 6 mps 753 mmHg 83%
    08:00 -15°C° 0 mm 6 mps 754 mmHg 82%
    09:00 -15°C° 0 mm 6 mps 755 mmHg 81%
    10:00 -13°C° 0 mm 5 mps 756 mmHg 80%
    11:00 -11°C° 0 mm 4 mps 756 mmHg 80%
    12:00 -10°C° 0 mm 4 mps 757 mmHg 79%
    13:00 -10°C° 0 mm 4 mps 757 mmHg 80%
    14:00 -9°C° 0 mm 4 mps 757 mmHg 80%
    15:00 -9°C° 0 mm 4 mps 757 mmHg 81%
    16:00 -10°C° 0 mm 4 mps 757 mmHg 80%
    17:00 -11°C° 0 mm 5 mps 757 mmHg 80%
    18:00 -12°C° 0 mm 5 mps 757 mmHg 80%
    19:00 -12°C° 0 mm 5 mps 757 mmHg 78%
    20:00 -12°C° 0 mm 6 mps 757 mmHg 77%
    21:00 -12°C° 0 mm 6 mps 757 mmHg 76%
    22:00 -12°C° 0 mm 6 mps 756 mmHg 76%
    23:00 -12°C° 0 mm 6 mps 756 mmHg 76%

    20 February, Wednesday

    Time Temperature Precipitation Wind Pressure Humidity
    00:00 -12°C° 0 mm 6 mps 756 mmHg 77%
    01:00 -12°C° 0 mm 6 mps 756 mmHg 77%
    02:00 -12°C° 0 mm 6 mps 756 mmHg 77%
    03:00 -12°C° 0 mm 6 mps 756 mmHg 78%
    04:00 -12°C° 0 mm 6 mps 755 mmHg 79%
    05:00 -12°C° 0 mm 5 mps 755 mmHg 79%
    06:00 -12°C° 0 mm 5 mps 755 mmHg 80%
    07:00 -12°C° 0 mm 5 mps 755 mmHg 80%
    08:00 -12°C° 0 mm 5 mps 755 mmHg 81%
    09:00 -12°C° 0 mm 5 mps 755 mmHg 81%
    10:00 -11°C° 0 mm 6 mps 754 mmHg 80%
    11:00 -9°C° 0 mm 6 mps 754 mmHg 79%
    12:00 -8°C° 0 mm 6 mps 754 mmHg 79%
    13:00 -8°C° 0 mm 6 mps 753 mmHg 79%
    14:00 -8°C° 0 mm 6 mps 753 mmHg 79%
    15:00 -6°C° 0 mm 6 mps 753 mmHg 79%
    16:00 -8°C° 0 mm 6 mps 752 mmHg 80%
    17:00 -8°C° 0 mm 6 mps 752 mmHg 81%
    18:00 -9°C° 0 mm 6 mps 752 mmHg 83%
    19:00 -9°C° 0 mm 6 mps 751 mmHg 83%
    20:00 -9°C° 0 mm 6 mps 751 mmHg 83%
    21:00 -10°C° 0 mm 6 mps 751 mmHg 84%
    22:00 -10°C° 0 mm 6 mps 750 mmHg 85%
    23:00 -10°C° 0 mm 5 mps 750 mmHg 87%

    21 February, Thursday

    Time Temperature Precipitation Wind Pressure Humidity
    00:00 -10°C° 0 mm 5 mps 750 mmHg 88%
    01:00 -8°C° 0 mm 5 mps 749 mmHg 89%
    02:00 -8°C° 0 mm 5 mps 749 mmHg 89%
    03:00 -7°C° 0 mm 5 mps 748 mmHg 90%
    04:00 -7°C° 0 mm 5 mps 748 mmHg 90%
    05:00 -6°C° 0 mm 5 mps 748 mmHg 91%
    06:00 -6°C° 0 mm 5 mps 747 mmHg 91%
    07:00 -5°C° 0 mm 5 mps 747 mmHg 90%
    08:00 -5°C° 0 mm 5 mps 747 mmHg 90%
    09:00 -4°C° 0 mm 5 mps 747 mmHg 90%
    10:00 -4°C° 0 mm 5 mps 746 mmHg 89%
    11:00 -2°C° 0 mm 5 mps 746 mmHg 89%
    12:00 -1°C° 0 mm 5 mps 746 mmHg 89%
    13:00 -1°C° 0 mm 5 mps 745 mmHg 89%
    14:00 -1°C° 0 mm 5 mps 745 mmHg 89%
    15:00 -1°C° 0 mm 5 mps 744 mmHg 90%
    16:00 -1°C° 0.1 mm 5 mps 744 mmHg 90%
    17:00 -1°C° 0.1 mm 5 mps 744 mmHg 89%
    18:00 -2°C° 0.1 mm 5 mps 744 mmHg 89%
    19:00 -2°C° 0.1 mm 5 mps 743 mmHg 90%
    20:00 -2°C° 0.1 mm 5 mps 743 mmHg 90%
    21:00 -2°C° 0.1 mm 4 mps 743 mmHg 91%
    22:00 -3°C° 0.1 mm 4 mps 742 mmHg 90%
    23:00 -3°C° 0.1 mm 4 mps 742 mmHg 90%
    Show more